Weather in Berezovka

Ukraine / Odesa District     47°59′15″N   29°21′50″E
temp.,
°C
wind,
m/s
gust,
m/s
humid.,
%
clouds,
%
prec.,
mm/h
press.,
hPa
HPBL,
m
22 april, thu
thu2200:00+8ssw33695 0.0 101743
03:00+7ssw22735 0.0 101722
06:00+6s22780 0.0 101822
09:00+11s46665 0.0 1018345
12:00+15ssw66525 0.2 10181582
15:00+18ssw564188 0.4 10172511
18:00+17ssw46455 0.0 10151965
21:00+12sse345876 0.0 101651
23 april, fri
fri2300:00+10s377786 0.6 1016147
03:00+8ssw37865 0.9 1015158
06:00+7nw489535 0.1 1016230
09:00+8nnw5679100 0.1 1017515
12:00+9n6572100 0.0 1018883
15:00+6nnw6885100 0.2 1019675
18:00+8nnw367298 2.1 1018979
21:00+6w22785 2.1 101924
24 april, sat
sat2400:00+4wnw34809 0.0 102078
03:00+3wnw410820 0.0 1020222
06:00+3w4138725 0.0 1020331
09:00+5wnw8117494 0.0 10221193
12:00+7nw911416 0.0 10222099
15:00+9nw81137100 0.0 10222648
18:00+9nw6104227 0.0 10222361
21:00+5wnw225920 0.0 102325
25 april, sun
sun2500:00+4w226213 0.0 102412
03:00+4sw226299 0.0 102329
06:00+3ssw33625 0.0 102235
09:00+8ssw594962 0.0 1021560
12:00+11sw786199 0.3 10191421
15:00+13wnw784794 1.1 10182204
18:00+11nw565499 0.1 10181470
21:00+7nnw5861100 0.1 1020817
26 april, mon
mon2600:00+5nw486040 0.0 1021496
03:00+3nw36680 0.0 1021157
06:00+1wnw36720 0.0 1021124
09:00+6wnw58560 0.0 1021968
12:00+9wnw7942100 0.0 10202547
15:00+10wnw81140100 0.0 10192551
18:00+9nw694016 0.0 10192092
21:00+5nnw245398 0.0 102188